Tracking 17143 objects as of 26-May-2015
HD Live streaming from Space Station

NAVSTAR 33 (USA 92)

Track NAVSTAR 33 (USA 92) now!
NAVSTAR 33 (USA 92) is classified as:


NORAD ID: 22700
Int'l Code: 1993-042A
Perigee: 19,738.5 km
Apogee: 20,639.0 km
Inclination: 56.1 °
Period: 718.0 minutes
Semi major axis: 26559 km
RCS: 3.4011 m2 (large)
Launch date: June 26, 1993
Source: United States (US)
PRN:
Your satellite tracking list
Your tracking list is empty





NASA's NSSDC Master Catalog

Two Line Element Set (TLE):
1 22700U 93042A   15143.72895027 -.00000060  00000-0  00000+0 0  9999
2 22700 056.0862 310.9703 0169528 112.2835 266.1451 02.00570061160436

Source of the keplerian elements: AFSPC

N2YO: 391